Location: American Medical Response
(33.3472°N, 96.5511°W)
Time: 06:56:55
(UTC+00:00)

Okean 1 - Pass Details

Date: 08 December 2021
Orbit: 537 x 553 km, 82.5° (Epoch: 17 January)

Event Time Altitude Azimuth Distance (km) Brightness Sun altitude
Rises 12:38:00 0° 357° (N) 2,695 6.6 -8.4°
Reaches altitude 10° 12:40:11 10° 1° (N) 1,799 5.7 -8.0°
Maximum altitude 12:44:06 61° 82° (E) 615 3.9 -7.2°
Drops below altitude 10° 12:47:58 10° 163° (SSE) 1,787 6.5 -6.5°
Sets 12:50:08 0° 167° (SSE) 2,675 7.4 -6.1°
